This demonstration page uses our WeatherBlox Daily Observations layout. Learn more.

Left ArrowRight Arrow

38.20091, -84.87328

Hourly Observations for February 6, 2020

Temp ( °F °C ) Dew Point ( °F °C ) Humidity (%) Winds ( mph kmh ) Pressure ( in mb ) Visibility ( mi km ) Precip ( " mm )
12:34 am 00:34 Cloudy with Mist and Fog 37 2.8 36 2.2 96 96 NNE 5 7 29.59 1002 3 4 0.00 0.00
12:51 am 00:51 Cloudy with Mist and Fog 37 3 36 2 93 93 N 3 6 29.59 1002 2 3 0.00 0.00
12:53 am 00:53 Cloudy with Mist and Fog 37 2.8 36 2.2 96 96 N 3 6 29.57 1002 2 2 0.00 0.00
1:20 am 01:20 Cloudy with Mist and Fog 37 2.8 36 2.2 96 96 Calm 29.59 1002 1 2 0.00 0.00
1:42 am 01:42 Mostly Cloudy with Mist and Fog 37 2.8 36 2.2 96 96 Calm 29.60 1002 1 1 0.00 0.00
1:53 am 01:53 Mostly Cloudy with Fog 37 2.8 36 2.2 96 96 N 3 6 29.57 1002 1 1 0.00 0.00
2:12 am 02:12 Cloudy with Light Rain 37 2.8 36 2.2 96 96 NNW 6 9 29.59 1002 1 2 0.03 0.76
2:20 am 02:20 Cloudy with Light Rain 37 2.8 36 2.2 96 96 NNW 6 9 29.59 1002 2 3 0.04 1.02
2:36 am 02:36 Cloudy with Light Rain 37 2.8 36 2.2 96 96 NNW 7 11 29.59 1002 2 3 0.04 1.02
2:53 am 02:53 Cloudy with Light Rain 37 2.8 36 2.2 96 96 NNW 6 9 29.57 1001 3 4 0.05 1.27
3:25 am 03:25 Cloudy with Light Rain 37 2.8 36 2.2 96 96 NW 8 13 29.60 1002 2 3 0.01 0.25
3:33 am 03:33 Cloudy with Mist and Fog 37 2.8 36 2.2 96 96 NW 7 11 29.60 1002 3 4 0.01 0.25
3:45 am 03:45 Cloudy with Mist and Fog 37 2.8 36 2.2 96 96 NNW 7 11 29.59 1002 3 5 0.01 0.25
3:53 am 03:53 Cloudy with Mist and Fog 37 2.8 36 2.2 96 96 NW 6 9 29.58 1002 4 6 0.01 0.25
4:53 am 04:53 Cloudy with Mist and Fog 37 2.8 36 2.2 96 96 NNE 5 7 29.51 999 5 8 0.00 0.00
5:53 am 05:53 Cloudy with Mist and Fog 37 2.8 36 2.2 96 96 NNE 5 7 29.51 999 3 5 0.00 0.00
6:00 am 06:00 Cloudy with Mist and Fog 37 2.8 36 2.2 96 96 N 5 7 29.53 1000 2 3 0.00 0.00
6:08 am 06:08 Cloudy with Mist and Fog 37 2.8 36 2.2 96 96 N 6 9 29.53 1000 2 3 0.00 0.00
6:16 am 06:16 Cloudy with Mist and Fog 37 2.8 36 2.2 96 96 N 6 9 29.52 1000 3 4 0.00 0.00
6:23 am 06:23 Cloudy with Mist and Fog 37 2.8 36 2.2 96 96 NNE 3 6 29.52 1000 3 5 0.00 0.00
6:53 am 06:53 Cloudy with Mist and Fog 37 2.8 36 2.2 96 96 N 3 6 29.50 999 4 6 0.00 0.00
7:28 am 07:28 Cloudy with Mist and Fog 37 2.8 35 1.7 93 93 N 6 9 29.52 1000 3 4 0.00 0.00
7:53 am 07:53 Cloudy with Mist and Fog 36 2.2 36 2.2 100 100 NW 6 9 29.53 1000 3 4 0.00 0.00
8:17 am 08:17 Cloudy with Mist and Fog 36 2.2 35 1.7 97 97 WNW 8 13 29.58 1002 1 2 0.00 0.00
8:25 am 08:25 Cloudy with Mist and Fog 36 2.2 35 1.7 97 97 NNW 8 13 29.55 1001 1 2 0.00 0.00
8:38 am 08:38 Cloudy with Mist and Fog 36 2.2 35 1.7 97 97 NNW 5 7 29.54 1000 1 2 0.00 0.00
8:53 am 08:53 Cloudy with Mist and Fog 36 2.2 35 1.7 97 97 NNW 6 9 29.53 1000 2 3 0.00 0.00
9:09 am 09:09 Cloudy with Mist and Fog 36 2.2 35 1.7 97 97 NNW 6 9 29.54 1000 3 5 0.00 0.00
9:50 am 09:50 Cloudy with Rain 36 2 34 1 93 93 WNW 8 13 29.61 1003 2 3 0.02 0.51
9:53 am 09:53 Cloudy with Light Rain 36 2.2 34 1.1 93 93 NW 8 13 29.60 1002 3 4 0.02 0.51
10:05 am 10:05 Cloudy with Light Rain 36 2.2 34 1.1 93 93 NW 10 17 29.60 1002 3 5 0.02 0.51
10:09 am 10:09 Cloudy with Heavy Rain 36 2.2 34 1.1 93 93 NW 9 15 29.60 1002 2 3 0.04 1.02
10:16 am 10:16 Cloudy with Light Rain 36 2.2 34 1.1 93 93 NNW 5 7 29.59 1002 2 3 0.05 1.27
10:24 am 10:24 Cloudy with Light Rain 36 2.2 34 1.1 93 93 N 6 9 29.57 1001 4 6 0.06 1.52
10:53 am 10:53 Cloudy with Light Rain 36 2.2 34 1.1 93 93 Calm 29.54 1001 7 11 0.09 2.29
11:39 am 11:39 Cloudy 37 2.8 34 1.1 89 89 NE 6 9 29.49 999 10 16 0.00 0.00
11:53 am 11:53 Cloudy 37 2.8 34 1.1 89 89 NE 7 11 29.46 998 10 16 0.00 0.00
12:53 pm 12:53 Cloudy 37 2.8 34 1.1 89 89 Calm 29.45 997 10 16 0.00 0.00
1:53 pm 13:53 Cloudy 37 2.8 35 1.7 93 93 WNW 7 11 29.42 996 10 16 0.00 0.00
2:02 pm 14:02 Cloudy 37 2.8 34 1.1 89 89 NW 9 15 29.45 997 9 14 0.00 0.00
2:12 pm 14:12 Cloudy with Mist and Fog 37 2.8 35 1.7 93 93 NW 8 13 29.44 997 6 10 0.00 0.00
2:53 pm 14:53 Cloudy 37 2.8 34 1.1 89 89 WNW 9 15 29.45 997 10 16 0.00 0.00
3:03 pm 15:03 Cloudy 37 2.8 34 1.1 89 89 WNW 9 15 29.48 998 10 16 0.00 0.00
3:53 pm 15:53 Cloudy 37 2.8 34 1.1 89 89 WNW 9 15 29.45 997 7 11 0.00 0.00
4:19 pm 16:19 Cloudy with Light Rain 36 2.2 34 1.1 93 93 NW 9 15 29.47 998 4 6 0.01 0.25
4:53 pm 16:53 Cloudy with Mist and Fog 35 1.7 33 0.6 93 93 WNW 9 15 29.46 998 5 8 0.01 0.25
5:12 pm 17:12 Cloudy with Mist and Fog 34 1.1 32 0 92 92 WNW 12 19 29.49 999 3 5 0.00 0.00
5:37 pm 17:37 Cloudy with Mist and Fog 34 1.1 32 0 92 92 WNW 8 13 29.49 999 3 4 0.00 0.00
5:46 pm 17:46 Cloudy with Mist and Fog 34 1.1 32 0 92 92 NW 7 11 29.49 999 3 5 0.00 0.00
5:53 pm 17:53 Cloudy with Mist and Fog 34 1.1 32 0 92 92 NW 9 15 29.46 998 4 6 0.00 0.00
6:10 pm 18:10 Cloudy with Mist and Fog 34 1.1 32 0 92 92 NW 6 9 29.50 999 5 8 0.00 0.00
6:53 pm 18:53 Cloudy with Mist and Fog 33 0.6 32 0 96 96 NW 6 9 29.48 998 5 8 0.00 0.00
7:12 pm 19:12 Cloudy with Mist and Fog 33 0.6 31 -0.6 92 92 WNW 6 9 29.50 999 5 8 0.00 0.00
7:27 pm 19:27 Cloudy 33 0.6 31 -0.6 92 92 VRB 6 9 29.51 999 7 11 0.00 0.00
7:35 pm 19:35 Cloudy 33 0.6 31 -0.6 92 92 VRB 3 6 29.50 999 7 11 0.00 0.00
7:53 pm 19:53 Cloudy 33 0.6 31 -0.6 92 92 WNW 5 7 29.49 999 7 11 0.00 0.00
8:23 pm 20:23 Cloudy with Mist and Fog 33 0.6 31 -0.6 92 92 WNW 6 9 29.51 999 6 10 0.00 0.00
8:48 pm 20:48 Cloudy 34 1 30 -1 87 87 WNW 3 6 29.51 999 9 14 0.00 0.00
8:53 pm 20:53 Cloudy 33 0.6 31 -0.6 92 92 NW 6 9 29.48 998 9 14 0.00 0.00
9:43 pm 21:43 Cloudy 33 0.6 30 -1.1 89 89 NW 5 7 29.49 999 8 13 0.00 0.00
9:53 pm 21:53 Cloudy 33 0.6 30 -1.1 89 89 NW 3 6 29.46 998 8 13 0.00 0.00
10:03 pm 22:03 Cloudy with Mist and Fog 33 0.6 30 -1.1 89 89 WNW 5 7 29.49 999 6 10 0.00 0.00
10:53 pm 22:53 Cloudy 33 0.6 29 -1.7 85 85 NNW 5 7 29.46 998 9 14 0.00 0.00
11:00 pm 23:00 Cloudy 32 0 29 -1.7 88 88 NW 5 7 29.49 999 8 13 0.00 0.00
11:37 pm 23:37 Cloudy 32 0 29 -1.7 88 88 WNW 5 7 29.48 998 7 11 0.00 0.00
11:53 pm 23:53 Cloudy with Mist and Fog 32 0 29 -1.7 88 88 WNW 7 11 29.44 997 5 8 0.00 0.00

Powered by AerisWeather